| time (UTC) | temp F | wind direction | speed MPH | gust MPH | rain 1hr in | rain 24hr in | rain mn in | humidity % | barometer mb |
| 20260507122104 | 66 | 215 | 1.0 | 6.0 | 0.00 | 0.00 | 0.00 | 63 | 1010.5 |
| 20260507121604 | 66 | 245 | 3.0 | 8.0 | 0.00 | 0.00 | 0.00 | 64 | 1010.5 |
| 20260507121104 | 66 | 276 | 3.0 | 8.0 | 0.00 | 0.00 | 0.00 | 64 | 1010.5 |
| 20260507120104 | 66 | 278 | 2.0 | 6.0 | 0.00 | 0.00 | 0.00 | 65 | 1010.8 |
| 20260507115604 | 66 | 169 | 2.0 | 6.0 | 0.00 | 0.00 | 0.00 | 64 | 1010.8 |
| 20260507115104 | 66 | 238 | 1.0 | 5.0 | 0.00 | 0.00 | 0.00 | 65 | 1010.8 |
| 20260507114603 | 66 | 215 | 2.0 | 3.0 | 0.00 | 0.00 | 0.00 | 64 | 1010.8 |
| 20260507113604 | 66 | 265 | 2.0 | 6.0 | 0.00 | 0.00 | 0.00 | 64 | 1011.2 |
| 20260507113104 | 66 | 249 | 3.0 | 7.0 | 0.00 | 0.00 | 0.00 | 64 | 1010.8 |
| 20260507112604 | 65 | 243 | 3.0 | 7.0 | 0.00 | 0.00 | 0.00 | 64 | 1010.8 |
| 20260507112104 | 65 | 209 | 2.0 | 5.0 | 0.00 | 0.00 | 0.00 | 65 | 1010.8 |
| 20260507111605 | 65 | 233 | 1.0 | 5.0 | 0.00 | 0.00 | 0.00 | 64 | 1010.5 |
| 20260507111103 | 65 | 219 | 2.0 | 6.0 | 0.00 | 0.00 | 0.00 | 65 | 1010.8 |
| 20260507110604 | 65 | 198 | 3.0 | 6.0 | 0.00 | 0.00 | 0.00 | 65 | 1010.8 |
| 20260507105604 | 64 | 237 | 2.0 | 6.0 | 0.00 | 0.00 | 0.00 | 67 | 1010.5 |
| 20260507105104 | 64 | 254 | 3.0 | 6.0 | 0.00 | 0.00 | 0.00 | 67 | 1010.8 |
| 20260507104603 | 65 | 299 | 1.0 | 6.0 | 0.00 | 0.00 | 0.00 | 67 | 1010.8 |
| 20260507104104 | 65 | 231 | 2.0 | 6.0 | 0.00 | 0.00 | 0.00 | 66 | 1010.5 |
| 20260507103103 | 64 | 252 | 1.0 | 3.0 | 0.00 | 0.00 | 0.00 | 67 | 1010.8 |
| 20260507102604 | 64 | 348 | 1.0 | 5.0 | 0.00 | 0.00 | 0.00 | 68 | 1010.5 |
| 20260507101104 | 64 | 290 | 1.0 | 3.0 | 0.00 | 0.00 | 0.00 | 69 | 1010.5 |
| 20260507100604 | 64 | 213 | 1.0 | 3.0 | 0.00 | 0.00 | 0.00 | 70 | 1010.8 |
| 20260507095603 | 64 | 234 | 3.0 | 6.0 | 0.00 | 0.00 | 0.00 | 70 | 1010.5 |
| 20260507095104 | 64 | 171 | 3.0 | 3.0 | 0.00 | 0.00 | 0.00 | 69 | 1010.5 |
| 20260507094603 | 63 | 199 | 2.0 | 2.0 | 0.00 | 0.00 | 0.00 | 71 | 1010.5 |
| 20260507094103 | 62 | 250 | 0.0 | 3.0 | 0.00 | 0.00 | 0.00 | 71 | 1010.5 |
| 20260507093604 | 62 | 266 | 1.0 | 3.0 | 0.00 | 0.00 | 0.00 | 71 | 1010.5 |
| 20260507093104 | 62 | 333 | 0.0 | 5.0 | 0.00 | 0.00 | 0.00 | 71 | 1010.8 |
| 20260507092604 | 62 | 344 | 3.0 | 5.0 | 0.00 | 0.00 | 0.00 | 72 | 1010.5 |
| 20260507092104 | 62 | 356 | 0.0 | 3.0 | 0.00 | 0.00 | 0.00 | 72 | 1010.5 |
| 20260507091604 | 62 | 301 | 1.0 | 3.0 | 0.00 | 0.00 | 0.00 | 73 | 1010.5 |
| 20260507091103 | 62 | 220 | 1.0 | 2.0 | 0.00 | 0.00 | 0.00 | 72 | 1010.5 |
| 20260507090604 | 62 | 337 | 0.0 | 3.0 | 0.00 | 0.00 | 0.00 | 73 | 1010.8 |
| 20260507090104 | 61 | 163 | 1.0 | 3.0 | 0.00 | 0.00 | 0.00 | 73 | 1010.5 |
| 20260507085604 | 61 | 178 | 2.0 | 2.0 | 0.00 | 0.00 | 0.00 | 73 | 1010.5 |
| 20260507085104 | 61 | 208 | 1.0 | 2.0 | 0.00 | 0.00 | 0.00 | 74 | 1010.2 |
| 20260507084604 | 61 | 226 | 0.0 | 3.0 | 0.00 | 0.00 | 0.00 | 73 | 1010.5 |
| 20260507084103 | 60 | 186 | 1.0 | 5.0 | 0.00 | 0.00 | 0.00 | 75 | 1010.2 |
| 20260507083604 | 61 | 234 | 3.0 | 5.0 | 0.00 | 0.00 | 0.00 | 74 | 1010.2 |
| 20260507083104 | 60 | 170 | 2.0 | 3.0 | 0.00 | 0.00 | 0.00 | 74 | 1010.2 |
| 20260507082604 | 61 | 194 | 1.0 | 2.0 | 0.00 | 0.00 | 0.00 | 73 | 1010.2 |
| 20260507081103 | 60 | 0 | 0.0 | 1.0 | 0.00 | 0.00 | 0.00 | 75 | 1009.8 |
| 20260507080604 | 59 | 0 | 0.0 | 5.0 | 0.00 | 0.00 | 0.00 | 75 | 1009.8 |
| 20260507080104 | 58 | 23 | 3.0 | 5.0 | 0.00 | 0.00 | 0.00 | 75 | 1009.8 |
| 20260507075604 | 58 | 33 | 1.0 | 6.0 | 0.00 | 0.00 | 0.00 | 74 | 1009.8 |
| 20260507075104 | 58 | 7 | 2.0 | 6.0 | 0.00 | 0.00 | 0.00 | 74 | 1009.8 |
| 20260507074604 | 58 | 358 | 1.0 | 3.0 | 0.00 | 0.00 | 0.00 | 73 | 1009.8 |
| 20260507074104 | 58 | 348 | 2.0 | 3.0 | 0.00 | 0.00 | 0.00 | 73 | 1009.5 |
| 20260507073603 | 57 | 4 | 1.0 | 3.0 | 0.00 | 0.00 | 0.00 | 73 | 1009.5 |
| 20260507073104 | 57 | 9 | 1.0 | 3.0 | 0.00 | 0.00 | 0.00 | 73 | 1009.8 |
| 20260507072604 | 56 | 351 | 1.0 | 3.0 | 0.00 | 0.00 | 0.00 | 74 | 1009.8 |
| 20260507072104 | 56 | 358 | 1.0 | 8.0 | 0.00 | 0.00 | 0.00 | 74 | 1009.5 |
| 20260507071604 | 55 | 10 | 5.0 | 8.0 | 0.00 | 0.00 | 0.00 | 74 | 1009.5 |
| 20260507070604 | 55 | 2 | 2.0 | 7.0 | 0.00 | 0.00 | 0.00 | 75 | 1009.5 |
| 20260507065603 | 54 | 340 | 2.0 | 7.0 | 0.00 | 0.00 | 0.00 | 75 | 1009.5 |
| 20260507065104 | 54 | 9 | 2.0 | 7.0 | 0.00 | 0.00 | 0.00 | 76 | 1009.5 |
| 20260507064604 | 54 | 358 | 1.0 | 5.0 | 0.00 | 0.00 | 0.00 | 76 | 1009.5 |
| 20260507064104 | 54 | 337 | 2.0 | 5.0 | 0.00 | 0.00 | 0.00 | 77 | 1009.2 |
| 20260507063605 | 53 | 351 | 3.0 | 5.0 | 0.00 | 0.00 | 0.00 | 77 | 1009.1 |
| 20260507063104 | 53 | 358 | 1.0 | 5.0 | 0.00 | 0.00 | 0.00 | 77 | 1009.1 |
| 20260507062605 | 53 | 7 | 0.0 | 5.0 | 0.00 | 0.00 | 0.00 | 77 | 1009.1 |
| 20260507062103 | 53 | 23 | 2.0 | 5.0 | 0.00 | 0.00 | 0.00 | 77 | 1009.1 |
| 20260507061104 | 53 | 2 | 2.0 | 5.0 | 0.00 | 0.00 | 0.00 | 77 | 1009.0 |
| 20260507060604 | 52 | 356 | 2.0 | 5.0 | 0.00 | 0.00 | 0.00 | 77 | 1008.9 |
| 20260507060104 | 52 | 357 | 3.0 | 5.0 | 0.00 | 0.00 | 0.00 | 77 | 1009.1 |
| 20260507055604 | 52 | 5 | 3.0 | 5.0 | 0.00 | 0.00 | 0.00 | 78 | 1008.8 |
| 20260507055103 | 52 | 17 | 2.0 | 5.0 | 0.00 | 0.00 | 0.00 | 78 | 1008.8 |
| 20260507054604 | 52 | 22 | 2.0 | 5.0 | 0.00 | 0.00 | 0.00 | 78 | 1008.8 |
| 20260507054103 | 52 | 348 | 2.0 | 5.0 | 0.00 | 0.00 | 0.00 | 78 | 1009.1 |
| 20260507053603 | 52 | 14 | 2.0 | 5.0 | 0.00 | 0.00 | 0.00 | 78 | 1008.8 |
| 20260507052604 | 52 | 335 | 1.0 | 5.0 | 0.00 | 0.00 | 0.00 | 77 | 1009.1 |
| 20260507052104 | 52 | 8 | 2.0 | 5.0 | 0.00 | 0.00 | 0.00 | 77 | 1008.8 |
| 20260507051604 | 53 | 21 | 2.0 | 6.0 | 0.00 | 0.00 | 0.00 | 77 | 1008.8 |
| 20260507051103 | 53 | 2 | 3.0 | 6.0 | 0.00 | 0.00 | 0.00 | 76 | 1008.8 |
| 20260507050604 | 53 | 22 | 3.0 | 6.0 | 0.00 | 0.00 | 0.00 | 76 | 1008.8 |
| 20260507050105 | 53 | 359 | 3.0 | 5.0 | 0.00 | 0.00 | 0.00 | 77 | 1008.8 |
| 20260507045603 | 53 | 2 | 3.0 | 5.0 | 0.00 | 0.00 | 0.00 | 77 | 1008.5 |
| 20260507045103 | 53 | 8 | 2.0 | 5.0 | 0.00 | 0.00 | 0.00 | 77 | 1008.8 |
| 20260507044604 | 53 | 29 | 2.0 | 3.0 | 0.00 | 0.00 | 0.00 | 77 | 1008.8 |
| 20260507044104 | 53 | 345 | 2.0 | 3.0 | 0.00 | 0.00 | 0.00 | 76 | 1008.5 |
| 20260507043604 | 53 | 352 | 2.0 | 5.0 | 0.00 | 0.00 | 0.00 | 76 | 1008.8 |
| 20260507043104 | 53 | 357 | 2.0 | 6.0 | 0.00 | 0.00 | 0.00 | 76 | 1008.5 |
| 20260507042603 | 53 | 4 | 3.0 | 6.0 | 0.00 | 0.00 | 0.00 | 77 | 1008.5 |
| 20260507042104 | 53 | 341 | 2.0 | 5.0 | 0.00 | 0.00 | 0.00 | 76 | 1008.5 |
| 20260507041604 | 53 | 2 | 1.0 | 5.0 | 0.00 | 0.00 | 0.00 | 76 | 1008.8 |
| 20260507041104 | 53 | 32 | 2.0 | 5.0 | 0.00 | 0.00 | 0.00 | 76 | 1008.5 |
| 20260507040604 | 53 | 2 | 1.0 | 2.0 | 0.00 | 0.00 | 0.00 | 76 | 1008.5 |
| 20260507040104 | 53 | 13 | 1.0 | 3.0 | 0.00 | 0.00 | 0.00 | 76 | 1008.5 |
| 20260507035604 | 53 | 14 | 2.0 | 6.0 | 0.00 | 0.00 | 0.00 | 76 | 1008.5 |
| 20260507035103 | 53 | 12 | 3.0 | 6.0 | 0.00 | 0.00 | 0.00 | 76 | 1008.5 |
| 20260507034604 | 53 | 5 | 2.0 | 7.0 | 0.00 | 0.00 | 0.00 | 76 | 1008.5 |
| 20260507034103 | 53 | 8 | 1.0 | 7.0 | 0.00 | 0.00 | 0.00 | 76 | 1008.5 |
| 20260507033603 | 53 | 348 | 3.0 | 5.0 | 0.00 | 0.00 | 0.00 | 77 | 1008.5 |
| 20260507033104 | 53 | 355 | 3.0 | 5.0 | 0.00 | 0.00 | 0.00 | 77 | 1008.1 |
| 20260507032604 | 53 | 346 | 2.0 | 3.0 | 0.00 | 0.00 | 0.00 | 77 | 1008.5 |
| 20260507032104 | 53 | 1 | 2.0 | 5.0 | 0.00 | 0.00 | 0.00 | 77 | 1008.5 |
| 20260507031605 | 53 | 12 | 1.0 | 5.0 | 0.00 | 0.00 | 0.00 | 77 | 1008.1 |
| 20260507030604 | 54 | 16 | 0.0 | 3.0 | 0.00 | 0.00 | 0.00 | 76 | 1008.1 |
| 20260507030104 | 54 | 53 | 1.0 | 2.0 | 0.00 | 0.00 | 0.00 | 76 | 1008.1 |
| 20260507025604 | 54 | 12 | 1.0 | 3.0 | 0.00 | 0.00 | 0.00 | 76 | 1008.1 |
| 20260507025104 | 55 | 2 | 1.0 | 6.0 | 0.00 | 0.00 | 0.00 | 76 | 1008.1 |
| 20260507024604 | 55 | 13 | 3.0 | 7.0 | 0.00 | 0.00 | 0.00 | 76 | 1008.1 |
| 20260507023604 | 55 | 8 | 1.0 | 6.0 | 0.00 | 0.00 | 0.00 | 75 | 1008.1 |
| 20260507023104 | 55 | 2 | 3.0 | 7.0 | 0.00 | 0.00 | 0.00 | 75 | 1008.1 |
| 20260507022603 | 55 | 14 | 2.0 | 7.0 | 0.00 | 0.00 | 0.00 | 75 | 1008.1 |
| 20260507022103 | 55 | 8 | 3.0 | 6.0 | 0.00 | 0.00 | 0.00 | 75 | 1007.8 |
| 20260507020104 | 55 | 0 | 3.0 | 6.0 | 0.00 | 0.00 | 0.00 | 75 | 1007.8 |
| 20260507015604 | 56 | 11 | 3.0 | 6.0 | 0.00 | 0.00 | 0.00 | 75 | 1008.1 |
| 20260507014604 | 56 | 0 | 2.0 | 5.0 | 0.00 | 0.00 | 0.00 | 75 | 1008.1 |
| 20260507014104 | 56 | 2 | 1.0 | 5.0 | 0.00 | 0.00 | 0.00 | 75 | 1008.5 |
| 20260507013603 | 56 | 8 | 2.0 | 5.0 | 0.00 | 0.00 | 0.00 | 75 | 1008.1 |
| 20260507013104 | 56 | 9 | 3.0 | 5.0 | 0.00 | 0.00 | 0.00 | 75 | 1008.5 |
| 20260507012604 | 56 | 4 | 3.0 | 6.0 | 0.00 | 0.00 | 0.00 | 74 | 1008.5 |
| 20260507012103 | 56 | 14 | 2.0 | 6.0 | 0.00 | 0.00 | 0.00 | 74 | 1008.5 |
| 20260507011605 | 57 | 6 | 3.0 | 5.0 | 0.00 | 0.00 | 0.00 | 74 | 1008.5 |
| 20260507011104 | 57 | 356 | 1.0 | 3.0 | 0.00 | 0.00 | 0.00 | 73 | 1008.5 |
| 20260507010603 | 57 | 7 | 1.0 | 3.0 | 0.00 | 0.00 | 0.00 | 73 | 1008.5 |
| 20260507010104 | 58 | 15 | 1.0 | 5.0 | 0.00 | 0.00 | 0.00 | 73 | 1008.8 |
| 20260507005604 | 58 | 358 | 1.0 | 5.0 | 0.00 | 0.00 | 0.00 | 72 | 1008.5 |
| 20260507005104 | 58 | 354 | 1.0 | 3.0 | 0.00 | 0.00 | 0.00 | 72 | 1008.5 |
| 20260507004603 | 58 | 337 | 2.0 | 3.0 | 0.00 | 0.00 | 0.00 | 73 | 1008.7 |
| 20260507004104 | 58 | 340 | 2.0 | 3.0 | 0.00 | 0.00 | 0.00 | 72 | 1008.6 |
| 20260507003604 | 58 | 353 | 2.0 | 3.0 | 0.00 | 0.00 | 0.00 | 72 | 1008.7 |
| 20260507003104 | 58 | 6 | 1.0 | 3.0 | 0.00 | 0.00 | 0.00 | 72 | 1008.8 |
| 20260507002104 | 59 | 343 | 1.0 | 5.0 | 0.00 | 0.00 | 0.00 | 71 | 1008.8 |
| 20260507001603 | 59 | 0 | 1.0 | 5.0 | 0.00 | 0.00 | 0.00 | 71 | 1008.9 |
| 20260507000604 | 59 | 355 | 1.0 | 6.0 | 0.00 | 0.00 | 0.00 | 71 | 1009.1 |
| 20260507000104 | 59 | 330 | 1.0 | 6.0 | 0.00 | 0.00 | 0.00 | 71 | 1008.8 |
| 20260506235603 | 59 | 358 | 1.0 | 5.0 | 0.00 | 0.00 | 0.00 | 71 | 1009.1 |
| 20260506234604 | 60 | 348 | 2.0 | 3.0 | 0.00 | 0.00 | 0.00 | 71 | 1008.8 |
| 20260506234104 | 60 | 354 | 2.0 | 3.0 | 0.00 | 0.00 | 0.00 | 70 | 1009.1 |
| 20260506233604 | 60 | 335 | 1.0 | 3.0 | 0.00 | 0.00 | 0.00 | 71 | 1008.8 |
| 20260506233104 | 60 | 349 | 2.0 | 2.0 | 0.00 | 0.00 | 0.00 | 72 | 1008.8 |
| 20260506232604 | 59 | 339 | 0.0 | 3.0 | 0.00 | 0.00 | 0.00 | 72 | 1009.1 |
| 20260506232104 | 59 | 346 | 1.0 | 3.0 | 0.00 | 0.00 | 0.00 | 73 | 1009.5 |
| 20260506231603 | 59 | 342 | 0.0 | 3.0 | 0.00 | 0.00 | 0.00 | 73 | 1009.5 |
| 20260506230603 | 60 | 1 | 1.0 | 2.0 | 0.00 | 0.00 | 0.00 | 73 | 1009.5 |
| 20260506225604 | 60 | 0 | 1.0 | 3.0 | 0.00 | 0.00 | 0.00 | 74 | 1009.5 |
| 20260506225104 | 60 | 353 | 1.0 | 5.0 | 0.00 | 0.00 | 0.00 | 74 | 1009.5 |
| 20260506224603 | 60 | 341 | 2.0 | 5.0 | 0.00 | 0.00 | 0.00 | 74 | 1009.5 |
| 20260506224104 | 60 | 351 | 2.0 | 5.0 | 0.00 | 0.00 | 0.00 | 74 | 1009.5 |
| 20260506223604 | 61 | 347 | 1.0 | 3.0 | 0.00 | 0.00 | 0.00 | 75 | 1009.5 |
| 20260506223104 | 61 | 359 | 2.0 | 3.0 | 0.00 | 0.00 | 0.00 | 75 | 1009.5 |
| 20260506222604 | 61 | 351 | 1.0 | 3.0 | 0.00 | 0.00 | 0.00 | 76 | 1009.5 |
| 20260506222104 | 61 | 352 | 0.0 | 2.0 | 0.00 | 0.00 | 0.00 | 77 | 1009.5 |
| 20260506221604 | 61 | 352 | 0.0 | 1.0 | 0.00 | 0.00 | 0.00 | 78 | 1009.5 |
| 20260506221104 | 61 | 335 | 0.0 | 1.0 | 0.00 | 0.00 | 0.00 | 80 | 1009.5 |
| 20260506220104 | 62 | 343 | 0.0 | 0.0 | 0.00 | 0.00 | 0.00 | 81 | 1009.5 |
| 20260506215604 | 62 | 339 | 0.0 | 0.0 | 0.00 | 0.00 | 0.00 | 81 | 1009.5 |
| 20260506214604 | 62 | 299 | 0.0 | 1.0 | 0.00 | 0.00 | 0.00 | 81 | 1009.5 |
| 20260506214103 | 62 | 303 | 0.0 | 2.0 | 0.00 | 0.00 | 0.00 | 80 | 1009.5 |
| 20260506213104 | 63 | 316 | 0.0 | 0.0 | 0.00 | 0.00 | 0.00 | 80 | 1009.5 |
| 20260506212604 | 63 | 339 | 0.0 | 2.0 | 0.00 | 0.00 | 0.00 | 80 | 1009.5 |
| 20260506211604 | 63 | 305 | 0.0 | 2.0 | 0.00 | 0.00 | 0.00 | 80 | 1009.5 |
| 20260506211104 | 63 | 255 | 0.0 | 2.0 | 0.00 | 0.00 | 0.00 | 79 | 1009.5 |
| 20260506210604 | 63 | 226 | 0.0 | 1.0 | 0.00 | 0.00 | 0.00 | 79 | 1009.1 |
| 20260506210104 | 63 | 207 | 1.0 | 1.0 | 0.00 | 0.00 | 0.00 | 79 | 1009.1 |
| 20260506205104 | 63 | 244 | 0.0 | 1.0 | 0.00 | 0.00 | 0.00 | 79 | 1008.8 |
| 20260506204604 | 63 | 340 | 0.0 | 1.0 | 0.00 | 0.00 | 0.00 | 79 | 1008.8 |
| 20260506203604 | 63 | 255 | 0.0 | 1.0 | 0.00 | 0.00 | 0.00 | 78 | 1008.8 |
| 20260506203104 | 63 | 303 | 0.0 | 0.0 | 0.00 | 0.00 | 0.00 | 78 | 1008.8 |
| 20260506202103 | 63 | 326 | 0.0 | 2.0 | 0.00 | 0.00 | 0.00 | 78 | 1008.5 |
| 20260506201604 | 63 | 207 | 0.0 | 2.0 | 0.00 | 0.00 | 0.00 | 78 | 1008.5 |
| 20260506201104 | 63 | 340 | 0.0 | 2.0 | 0.00 | 0.00 | 0.00 | 77 | 1008.8 |
| 20260506200105 | 63 | 267 | 0.0 | 5.0 | 0.00 | 0.00 | 0.00 | 77 | 1008.8 |
| 20260506195604 | 63 | 253 | 0.0 | 5.0 | 0.00 | 0.00 | 0.00 | 77 | 1008.5 |
| 20260506195104 | 63 | 272 | 0.0 | 1.0 | 0.00 | 0.00 | 0.00 | 77 | 1008.5 |
| 20260506194104 | 63 | 285 | 1.0 | 6.0 | 0.00 | 0.00 | 0.00 | 77 | 1008.5 |
| 20260506193603 | 63 | 241 | 1.0 | 6.0 | 0.00 | 0.00 | 0.00 | 76 | 1008.5 |
| 20260506192603 | 63 | 329 | 1.0 | 3.0 | 0.00 | 0.00 | 0.00 | 76 | 1008.5 |
| 20260506192104 | 63 | 284 | 2.0 | 3.0 | 0.00 | 0.00 | 0.00 | 76 | 1008.5 |
| 20260506191603 | 63 | 258 | 1.0 | 3.0 | 0.00 | 0.00 | 0.00 | 75 | 1008.5 |
| 20260506191104 | 63 | 300 | 1.0 | 7.0 | 0.00 | 0.00 | 0.00 | 75 | 1008.7 |
| 20260506190606 | 64 | 243 | 2.0 | 7.0 | 0.00 | 0.00 | 0.00 | 75 | 1008.6 |
| 20260506190104 | 64 | 231 | 2.0 | 5.0 | 0.00 | 0.00 | 0.00 | 74 | 1008.5 |
| 20260506185603 | 64 | 234 | 1.0 | 6.0 | 0.00 | 0.00 | 0.00 | 74 | 1008.5 |
| 20260506185103 | 64 | 241 | 1.0 | 6.0 | 0.00 | 0.00 | 0.00 | 73 | 1008.5 |
| 20260506184604 | 64 | 198 | 1.0 | 7.0 | 0.00 | 0.00 | 0.00 | 71 | 1008.5 |
| 20260506184104 | 65 | 171 | 3.0 | 9.0 | 0.00 | 0.00 | 0.00 | 70 | 1008.5 |
| 20260506183604 | 65 | 238 | 3.0 | 9.0 | 0.00 | 0.00 | 0.00 | 69 | 1008.5 |
| 20260506183104 | 65 | 259 | 3.0 | 8.0 | 0.00 | 0.00 | 0.00 | 67 | 1008.5 |
| 20260506182604 | 65 | 220 | 3.0 | 8.0 | 0.00 | 0.00 | 0.00 | 67 | 1008.5 |
| 20260506181604 | 65 | 215 | 3.0 | 10.0 | 0.00 | 0.00 | 0.00 | 67 | 1008.5 |
| 20260506181104 | 66 | 232 | 3.0 | 6.0 | 0.00 | 0.00 | 0.00 | 66 | 1008.8 |
| 20260506180604 | 66 | 135 | 3.0 | 7.0 | 0.00 | 0.00 | 0.00 | 65 | 1008.5 |
| 20260506180104 | 66 | 277 | 3.0 | 8.0 | 0.00 | 0.00 | 0.00 | 65 | 1008.8 |
| 20260506175604 | 66 | 175 | 4.0 | 8.0 | 0.00 | 0.00 | 0.00 | 64 | 1008.8 |
| 20260506175103 | 66 | 225 | 3.0 | 7.0 | 0.00 | 0.00 | 0.00 | 64 | 1008.8 |
| 20260506174604 | 66 | 248 | 4.0 | 7.0 | 0.00 | 0.00 | 0.00 | 65 | 1008.5 |
| 20260506174103 | 66 | 269 | 3.0 | 7.0 | 0.00 | 0.00 | 0.00 | 64 | 1008.5 |
| 20260506173604 | 67 | 220 | 3.0 | 6.0 | 0.00 | 0.00 | 0.00 | 64 | 1008.8 |
| 20260506173104 | 66 | 314 | 2.0 | 6.0 | 0.00 | 0.00 | 0.00 | 64 | 1008.8 |
| 20260506172604 | 67 | 232 | 1.0 | 7.0 | 0.00 | 0.00 | 0.00 | 65 | 1009.1 |
| 20260506172104 | 67 | 255 | 2.0 | 8.0 | 0.00 | 0.00 | 0.00 | 65 | 1008.8 |
| 20260506170604 | 67 | 256 | 2.0 | 8.0 | 0.00 | 0.00 | 0.00 | 64 | 1009.1 |
| 20260506170105 | 67 | 266 | 5.0 | 8.0 | 0.00 | 0.00 | 0.00 | 63 | 1009.1 |
| 20260506165604 | 67 | 259 | 3.0 | 8.0 | 0.00 | 0.00 | 0.00 | 62 | 1009.1 |
| 20260506165104 | 68 | 221 | 3.0 | 7.0 | 0.00 | 0.00 | 0.00 | 61 | 1009.5 |
| 20260506164604 | 68 | 212 | 2.0 | 9.0 | 0.00 | 0.00 | 0.00 | 62 | 1009.5 |
| 20260506164104 | 67 | 254 | 5.0 | 9.0 | 0.00 | 0.00 | 0.00 | 62 | 1008.8 |
| 20260506163604 | 68 | 225 | 3.0 | 8.0 | 0.00 | 0.00 | 0.00 | 62 | 1009.1 |
| 20260506162604 | 68 | 162 | 3.0 | 7.0 | 0.00 | 0.00 | 0.00 | 62 | 1009.1 |
| 20260506161604 | 68 | 275 | 2.0 | 8.0 | 0.00 | 0.00 | 0.00 | 60 | 1009.5 |
| 20260506161104 | 68 | 313 | 2.0 | 8.0 | 0.00 | 0.00 | 0.00 | 62 | 1009.1 |
| 20260506160604 | 68 | 262 | 3.0 | 8.0 | 0.00 | 0.00 | 0.00 | 62 | 1009.1 |
| 20260506160103 | 68 | 268 | 2.0 | 7.0 | 0.00 | 0.00 | 0.00 | 62 | 1009.5 |
| 20260506155604 | 69 | 263 | 2.0 | 7.0 | 0.00 | 0.00 | 0.00 | 62 | 1009.5 |
| 20260506155103 | 68 | 248 | 5.0 | 8.0 | 0.00 | 0.00 | 0.00 | 63 | 1009.5 |
| 20260506154604 | 68 | 72 | 3.0 | 8.0 | 0.00 | 0.00 | 0.00 | 63 | 1009.5 |
| 20260506154104 | 69 | 232 | 1.0 | 6.0 | 0.00 | 0.00 | 0.00 | 62 | 1009.5 |
| 20260506153605 | 68 | 311 | 2.0 | 10.0 | 0.00 | 0.00 | 0.00 | 63 | 1009.5 |
| 20260506153104 | 69 | 222 | 5.0 | 10.0 | 0.00 | 0.00 | 0.00 | 63 | 1009.8 |
| 20260506152604 | 69 | 178 | 2.0 | 9.0 | 0.00 | 0.00 | 0.00 | 62 | 1009.5 |
| 20260506152104 | 68 | 244 | 3.0 | 9.0 | 0.00 | 0.00 | 0.00 | 64 | 1009.5 |
| 20260506151604 | 69 | 234 | 2.0 | 9.0 | 0.00 | 0.00 | 0.00 | 64 | 1009.8 |
| 20260506151103 | 67 | 260 | 5.0 | 8.0 | 0.00 | 0.00 | 0.00 | 64 | 1009.8 |
| 20260506150603 | 68 | 289 | 3.0 | 8.0 | 0.00 | 0.00 | 0.00 | 66 | 1009.8 |
| 20260506150104 | 68 | 195 | 3.0 | 8.0 | 0.00 | 0.00 | 0.00 | 64 | 1009.8 |
| 20260506145603 | 69 | 336 | 2.0 | 7.0 | 0.00 | 0.00 | 0.00 | 65 | 1009.8 |
| 20260506145104 | 68 | 284 | 2.0 | 7.0 | 0.00 | 0.00 | 0.00 | 65 | 1010.2 |
| 20260506144604 | 69 | 166 | 3.0 | 7.0 | 0.00 | 0.00 | 0.00 | 64 | 1010.2 |
| 20260506143104 | 69 | 216 | 5.0 | 8.0 | 0.00 | 0.00 | 0.00 | 64 | 1010.2 |
| 20260506142604 | 69 | 186 | 3.0 | 8.0 | 0.00 | 0.00 | 0.00 | 64 | 1010.2 |
| 20260506141604 | 70 | 267 | 2.0 | 7.0 | 0.00 | 0.00 | 0.00 | 63 | 1010.2 |
| 20260506141104 | 69 | 264 | 1.0 | 7.0 | 0.00 | 0.00 | 0.00 | 64 | 1010.5 |
| 20260506140105 | 69 | 198 | 3.0 | 6.0 | 0.00 | 0.00 | 0.00 | 60 | 1010.5 |
| 20260506135604 | 69 | 279 | 2.0 | 6.0 | 0.00 | 0.00 | 0.00 | 61 | 1010.5 |
| 20260506135104 | 70 | 188 | 3.0 | 6.0 | 0.00 | 0.00 | 0.00 | 58 | 1010.5 |
| 20260506134603 | 70 | 258 | 2.0 | 7.0 | 0.00 | 0.00 | 0.00 | 59 | 1010.5 |
| 20260506134104 | 69 | 236 | 3.0 | 7.0 | 0.00 | 0.00 | 0.00 | 59 | 1010.8 |
| 20260506133604 | 69 | 223 | 2.0 | 6.0 | 0.00 | 0.00 | 0.00 | 60 | 1010.8 |
| 20260506133104 | 70 | 226 | 2.0 | 7.0 | 0.00 | 0.00 | 0.00 | 59 | 1010.8 |
| 20260506132604 | 70 | 253 | 2.0 | 7.0 | 0.00 | 0.00 | 0.00 | 59 | 1010.8 |
| 20260506132104 | 70 | 229 | 2.0 | 6.0 | 0.00 | 0.00 | 0.00 | 57 | 1010.8 |
| 20260506131605 | 70 | 187 | 1.0 | 5.0 | 0.00 | 0.00 | 0.00 | 57 | 1010.8 |
| 20260506130604 | 69 | 326 | 1.0 | 7.0 | 0.00 | 0.00 | 0.00 | 57 | 1011.2 |
| 20260506130105 | 70 | 217 | 2.0 | 6.0 | 0.00 | 0.00 | 0.00 | 56 | 1011.2 |
| 20260506125104 | 69 | 334 | 2.0 | 6.0 | 0.00 | 0.00 | 0.00 | 53 | 1011.2 |
| 20260506124604 | 69 | 258 | 2.0 | 7.0 | 0.00 | 0.00 | 0.00 | 54 | 1011.5 |
| 20260506123104 | 69 | 278 | 4.0 | 7.0 | 0.00 | 0.00 | 0.00 | 51 | 1011.3 |